Location: Gro�sch�nbrunn
(49.5760°N, 11.8868°E)
Time: 03:01:59
(UTC+00:00)

Cosmos 2227 Rocket - Pass Details

Date: 18 September 2020
Orbit: 840 x 844 km, 71.0° (Epoch: 18 October)

Event Time Altitude Azimuth Distance (km) Brightness Sun altitude
Rises 23:35:09 0° 334° (NNW) 3,407 6.0 -38.7°
Reaches altitude 10° 23:38:12 10° 350° (N) 2,469 5.3 -38.6°
Maximum altitude 23:42:32 22° 40° (NE) 1,767 4.3 -38.4°
Enters shadow 23:43:17 21° 51° (NE) 1,791 4.2 -38.4°
